Wind_Speed
31 31 32 31 31 32 33 34 36 35 35 35 36 35 35 36 36 36 36 36 36 36 36 36 36 37 37 38 39 40 42 42 43 44 45 46 46 47 46 46 47 48 50 51
32 31 32 32 31 32 33 34 35 35 35 34 35 36 36 36 36 36 36 36 36 36 37 37 37 38 38 39 40 40 41 42 43 43 45 46 47 47 47 48 48 49 50 51
32 32 33 33 32 32 33 33 34 35 35 34 34 35 35 36 37 36 35 35 36 37 37 37 37 38 39 40 40 41 41 42 43 43 44 46 47 46 46 47 48 49 50 51
33 33 34 33 33 33 34 33 33 34 34 34 34 34 35 35 35 36 36 35 35 36 36 36 37 37 38 39 40 41 42 43 43 43 43 44 45 45 46 48 48 49 50 51
34 35 36 34 34 33 34 34 34 34 34 34 33 34 34 34 35 35 35 35 35 35 36 36 37 37 38 39 40 41 42 42 43 43 43 44 45 45 46 47 48 49 49 50
34 34 35 33 33 33 34 34 34 34 34 34 34 34 33 34 34 34 34 35 35 35 35 36 36 37 38 39 39 40 41 41 42 43 44 44 44 45 46 47 47 48 48 48
33 33 33 33 33 33 33 34 34 34 34 34 34 34 33 33 33 33 33 34 35 35 35 35 35 36 37 38 38 39 39 40 42 42 43 44 44 45 46 46 47 47 47 48
32 32 32 31 31 32 33 33 34 33 33 33 33 33 33 33 32 32 33 34 35 35 35 36 36 36 37 37 37 37 38 39 40 41 42 42 43 43 44 45 46 46 47 47
31 31 31 31 31 31 32 32 32 32 32 32 32 32 32 32 33 33 33 34 34 35 35 36 36 36 36 36 36 37 38 38 39 39 40 41 41 42 43 44 44 44 45 45
29 28 28 29 29 30 30 30 31 32 31 31 31 31 31 32 33 33 34 34 34 34 34 35 35 35 35 35 36 36 36 37 38 38 38 39 39 39 40 41 42 42 43 43
27 27 27 28 29 29 30 31 32 32 32 32 32 32 33 33 34 34 34 34 34 34 34 34 34 34 34 34 34 35 36 36 36 37 37 37 37 38 39 40 40 41 41 42
26 27 28 28 29 29 29 30 31 32 32 32 33 33 33 33 34 34 34 34 34 34 33 33 33 33 34 34 34 34 34 35 35 35 35 36 36 36 37 37 38 39 39 40
28 28 29 29 29 29 30 30 31 31 31 31 32 32 33 33 33 32 32 33 33 33 33 33 33 33 33 33 33 33 34 34 34 34 35 35 35 35 35 35 35 36 38 38
26 27 27 28 29 29 29 29 29 30 30 30 30 31 32 32 32 31 31 32 32 31 31 31 31 31 31 31 32 32 32 33 33 34 34 34 34 34 34 34 34 34 35 36
24 25 26 27 28 28 28 29 29 29 30 30 30 31 32 31 31 31 31 30 30 30 29 30 30 30 31 31 31 32 32 33 33 33 33 33 33 34 34 34 34 33 34 34
23 25 25 26 26 27 28 29 30 30 30 30 29 29 29 29 29 29 29 28 28 28 28 28 29 30 30 30 31 32 32 33 33 33 33 33 33 33 33 33 33 33 32 32
23 24 25 25 25 25 26 27 28 27 28 28 28 28 28 28 28 27 27 27 27 27 27 28 28 29 30 30 31 32 33 33 33 33 33 33 33 33 33 32 31 31 31 31
23 24 24 25 25 26 27 27 27 27 28 28 28 27 28 28 27 27 27 27 26 27 27 28 29 29 30 31 31 32 32 33 32 32 32 32 32 31 31 30 29 29 29 29
23 24 24 25 25 26 26 26 26 27 27 27 27 27 27 27 27 27 27 27 28 28 28 29 30 30 30 31 31 31 32 32 31 31 31 31 30 30 28 28 27 27 26 27
23 24 24 25 25 25 26 26 26 26 26 27 27 27 27 27 27 28 28 28 28 28 29 30 30 30 30 31 31 31 31 31 31 30 30 29 28 28 27 27 26 25 24 24
22 23 24 25 25 26 26 26 26 26 26 27 27 27 27 27 27 28 28 28 28 29 29 30 30 30 30 30 31 31 31 31 30 29 29 28 27 27 26 25 24 23 23 22
23 24 25 26 26 26 26 26 26 27 27 28 28 29 28 28 28 28 28 29 29 30 30 30 31 31 31 31 31 30 30 30 29 28 28 27 27 26 25 24 22 21 21 20
26 26 27 27 27 27 27 27 28 28 28 29 29 29 29 29 28 29 29 29 30 30 30 31 31 31 31 30 29 29 29 29 28 27 27 26 26 25 24 23 21 20 20 20
27 27 28 28 28 28 28 29 29 29 29 30 30 30 30 29 30 30 30 30 30 31 30 30 30 30 29 29 28 27 27 27 27 26 25 25 24 23 23 22 21 20 20 20
28 28 29 29 29 30 30 30 30 30 30 30 30 30 30 30 30 30 30 30 29 29 29 29 29 29 28 27 26 26 26 26 25 24 23 23 22 22 21 20 20 19 19 19
28 29 29 30 30 30 30 30 30 30 30 30 30 30 30 30 30 30 30 29 28 28 28 28 28 27 26 25 25 25 25 24 24 23 22 21 21 20 19 18 18 18 17 17
29 29 29 30 30 30 30 29 29 29 30 29 29 29 29 30 30 30 29 29 28 27 27 26 26 26 25 24 24 24 23 23 23 22 21 20 19 18 17 16 16 16 15 15
Wind_Direction
282 283 285 286 285 284 282 281 282 283 282 283 283 283 283 283 283 283 283 282 280 279 279 277 275 274 274 273 272 271 271 271 270 269 267 267 268 268 268 268 267 266 266 264
282 282 283 284 284 284 284 283 283 283 283 285 285 284 283 283 283 284 284 283 282 282 281 279 277 276 275 274 274 273 272 272 271 270 269 268 269 269 268 267 268 268 267 266
284 283 283 283 285 285 285 285 285 285 285 286 287 287 286 285 285 285 286 284 283 283 282 280 279 277 276 275 275 275 274 273 272 272 271 270 270 269 269 268 268 268 267 267
284 283 282 286 285 285 286 286 287 287 287 286 287 287 287 287 287 286 286 285 283 283 283 282 281 280 278 278 277 276 275 274 274 274 273 273 272 271 270 269 269 269 268 267
284 284 283 284 286 287 286 286 287 288 286 286 287 287 286 286 287 287 287 286 285 284 285 284 283 282 281 280 280 278 277 275 275 275 275 274 273 272 271 271 270 269 270 268
284 285 286 287 286 286 287 288 289 288 287 285 286 285 285 286 287 287 287 286 284 284 286 287 286 285 283 283 282 280 279 278 276 276 276 275 274 273 273 272 271 269 270 269
285 285 287 288 288 289 289 290 290 290 289 286 286 285 285 286 286 285 285 285 285 286 287 288 288 287 286 286 285 283 282 280 279 278 277 276 275 273 273 273 272 270 270 269
287 286 288 289 289 289 289 290 291 292 291 288 287 286 286 286 286 286 287 287 287 287 287 287 288 288 289 289 288 286 285 283 282 281 279 277 275 275 274 273 273 272 271 270
288 287 288 287 287 287 289 290 291 292 290 288 288 288 287 286 285 286 288 289 288 288 287 287 288 289 290 289 289 288 287 286 284 283 281 279 277 276 274 273 273 273 272 270
290 290 289 289 289 289 290 291 292 293 291 289 290 290 289 288 288 288 289 289 288 288 289 289 290 290 290 290 290 290 289 288 287 285 283 281 279 277 276 273 272 272 273 271
290 290 288 288 289 289 290 292 293 294 293 292 292 291 290 290 290 289 289 288 288 288 289 290 290 290 290 291 292 292 291 290 288 286 285 283 282 280 278 276 274 273 273 271
290 290 288 288 287 288 290 292 293 294 294 294 293 293 292 292 292 291 290 290 290 290 290 290 290 289 290 291 292 292 292 291 290 289 288 287 286 284 282 279 277 275 274 273
290 290 290 290 289 290 291 292 293 295 295 295 294 293 294 294 294 292 291 291 291 291 291 291 291 291 292 293 293 293 294 293 292 291 291 290 288 287 285 282 281 279 277 276
294 293 293 291 290 291 292 293 295 296 297 297 296 296 295 294 294 293 292 292 291 291 291 292 292 293 294 294 294 295 296 296 295 294 293 292 291 289 287 285 284 283 281 279
297 297 297 295 293 292 293 293 295 298 299 300 299 298 297 296 296 296 295 294 293 293 293 293 294 294 295 295 295 296 297 298 297 296 295 294 293 292 290 288 286 284 283 281
299 300 301 300 297 295 294 295 297 299 300 301 300 300 299 298 298 298 296 295 294 294 295 295 296 296 296 296 295 296 298 298 298 297 296 295 294 294 292 291 289 286 284 282
301 302 303 302 301 300 298 299 299 299 300 301 301 300 300 299 299 298 296 295 294 294 295 296 297 297 298 297 297 297 298 299 299 298 297 297 296 296 295 292 290 288 285 283
302 304 305 306 304 302 301 301 301 300 300 301 301 301 300 300 299 297 296 295 295 295 295 296 297 299 299 299 299 299 299 299 299 299 298 298 298 298 296 293 291 289 287 284
304 306 307 307 305 304 303 302 302 302 302 302 302 302 302 300 299 298 296 296 295 296 297 298 298 299 299 300 301 301 301 301 301 300 299 299 299 299 298 295 292 290 288 286
306 308 310 311 310 309 308 306 304 304 304 303 303 304 303 301 300 298 297 296 295 295 297 298 299 299 300 301 302 302 302 302 301 300 299 299 299 299 298 297 294 291 289 287
307 310 312 313 313 312 311 309 307 306 305 304 304 304 303 302 301 299 298 297 297 297 298 298 299 300 300 300 300 301 302 302 302 301 299 298 298 298 298 298 295 292 290 288
307 310 312 313 313 312 311 310 309 307 306 306 305 304 304 302 301 300 298 297 298 298 298 298 299 299 299 299 300 301 303 303 303 301 300 299 298 297 296 295 294 292 289 287
305 307 310 311 312 311 311 311 310 309 307 307 307 306 305 303 301 300 300 299 298 298 298 298 299 300 300 300 301 301 302 303 303 302 300 299 299 296 294 293 290 290 289 288
304 307 309 310 311 310 309 310 310 310 309 309 308 308 306 305 303 301 300 299 298 298 298 299 300 300 300 301 301 301 302 303 303 303 301 300 299 297 295 291 288 286 286 286
304 306 308 309 310 309 309 309 309 310 309 309 309 308 307 306 305 305 303 301 300 299 299 299 299 300 300 301 301 302 303 303 303 303 302 300 299 298 296 291 287 285 284 284
304 305 308 309 309 309 309 309 309 310 310 309 309 309 308 308 307 307 306 303 301 300 300 299 300 300 301 301 301 302 303 304 304 304 303 301 300 299 296 292 288 286 285 283
304 305 307 309 309 310 309 309 310 311 311 311 311 310 310 310 309 309 307 305 302 301 300 300 300 300 300 299 300 301 303 304 304 304 304 302 301 299 296 293 290 289 287 286
Height
5598 5596 5594 5592 5591 5589 5586 5583 5581 5580 5578 5576 5573 5571 5568 5566 5564 5562 5560 5558 5556 5554 5552 5550 5548 5547 5545 5544 5542 5541 5539 5538 5537 5536 5536 5535 5535 5534 5533 5533 5532 5532 5532 5532
5589 5587 5584 5583 5582 5579 5576 5574 5571 5569 5568 5566 5563 5560 5558 5556 5554 5552 5550 5547 5545 5543 5541 5539 5538 5536 5534 5532 5531 5529 5528 5526 5525 5523 5523 5522 5521 5520 5520 5519 5518 5517 5517 5517
5579 5578 5574 5574 5573 5570 5567 5564 5562 5559 5559 5556 5553 5550 5548 5546 5544 5542 5540 5537 5535 5533 5530 5529 5527 5525 5523 5521 5519 5518 5516 5514 5512 5511 5510 5509 5507 5506 5505 5504 5503 5503 5502 5501
5568 5567 5564 5567 5563 5560 5557 5555 5552 5549 5548 5545 5543 5541 5538 5536 5534 5532 5530 5528 5525 5523 5520 5518 5516 5513 5511 5510 5508 5506 5504 5502 5500 5499 5497 5495 5494 5493 5491 5490 5489 5487 5486 5486
5557 5555 5553 5555 5553 5549 5546 5545 5542 5539 5537 5535 5533 5531 5529 5526 5524 5522 5520 5518 5515 5513 5510 5508 5505 5503 5500 5498 5496 5494 5492 5490 5488 5486 5484 5482 5480 5479 5477 5476 5474 5472 5471 5470
5548 5545 5544 5546 5542 5538 5536 5534 5533 5529 5527 5525 5523 5521 5520 5517 5514 5512 5510 5507 5505 5502 5500 5497 5495 5492 5489 5487 5484 5482 5479 5477 5475 5473 5471 5469 5467 5465 5463 5461 5459 5458 5456 5455
5538 5535 5534 5534 5531 5529 5528 5526 5522 5519 5517 5515 5513 5511 5509 5507 5504 5502 5500 5497 5495 5492 5489 5487 5484 5481 5478 5476 5473 5470 5467 5465 5463 5460 5458 5455 5453 5451 5448 5447 5445 5443 5442 5441
5528 5526 5528 5524 5522 5520 5517 5515 5512 5509 5507 5505 5503 5501 5498 5496 5494 5492 5490 5487 5485 5482 5479 5477 5474 5471 5468 5465 5462 5459 5456 5453 5450 5447 5445 5442 5439 5437 5435 5432 5431 5429 5428 5427
5520 5520 5517 5514 5512 5510 5508 5505 5503 5500 5498 5496 5493 5491 5489 5486 5484 5482 5480 5477 5475 5472 5469 5466 5463 5461 5458 5454 5451 5448 5445 5441 5438 5435 5432 5429 5426 5424 5421 5419 5417 5416 5414 5413
5511 5510 5507 5505 5503 5501 5498 5496 5494 5491 5489 5486 5484 5481 5479 5477 5474 5472 5470 5467 5464 5462 5459 5456 5453 5450 5447 5444 5440 5437 5434 5430 5426 5423 5420 5417 5413 5411 5409 5406 5405 5403 5402 5401
5502 5501 5498 5497 5494 5492 5490 5487 5485 5482 5479 5477 5474 5472 5469 5467 5464 5462 5459 5456 5454 5451 5449 5446 5443 5440 5437 5433 5430 5427 5423 5419 5415 5412 5408 5405 5402 5399 5396 5394 5392 5391 5389 5388
5494 5492 5489 5488 5485 5483 5481 5478 5476 5473 5471 5468 5465 5463 5460 5457 5454 5451 5449 5446 5443 5440 5438 5435 5432 5429 5426 5423 5419 5416 5412 5408 5405 5401 5397 5393 5390 5387 5384 5382 5380 5377 5376 5374
5486 5483 5481 5479 5476 5474 5472 5469 5467 5464 5462 5459 5456 5453 5450 5448 5444 5441 5439 5436 5433 5430 5428 5425 5422 5419 5416 5413 5409 5406 5402 5398 5394 5390 5387 5383 5379 5376 5373 5371 5368 5366 5363 5362
5478 5475 5473 5470 5468 5465 5463 5461 5458 5456 5452 5450 5447 5444 5441 5438 5435 5432 5429 5426 5423 5421 5418 5415 5412 5409 5406 5403 5399 5396 5392 5388 5384 5380 5377 5373 5369 5366 5362 5360 5357 5355 5352 5350
5470 5468 5465 5462 5460 5457 5455 5452 5450 5447 5444 5441 5438 5435 5432 5428 5425 5422 5419 5417 5414 5411 5409 5406 5403 5400 5397 5393 5390 5387 5383 5379 5375 5371 5367 5363 5359 5356 5352 5349 5346 5344 5341 5339
5463 5460 5458 5455 5452 5450 5447 5444 5442 5439 5436 5433 5429 5426 5423 5420 5416 5413 5410 5408 5405 5403 5400 5397 5394 5391 5388 5384 5381 5377 5373 5369 5365 5361 5357 5353 5350 5346 5342 5339 5336 5334 5331 5329
5457 5454 5451 5448 5445 5442 5439 5436 5434 5431 5428 5425 5422 5418 5415 5412 5408 5405 5402 5400 5397 5395 5392 5389 5385 5382 5379 5375 5372 5368 5364 5360 5356 5352 5348 5344 5340 5336 5332 5329 5326 5324 5322 5320
5450 5447 5444 5441 5438 5435 5432 5429 5426 5423 5420 5417 5414 5410 5407 5403 5400 5397 5395 5392 5389 5386 5383 5380 5377 5373 5370 5366 5362 5359 5355 5351 5346 5342 5338 5334 5330 5327 5323 5320 5317 5315 5313 5311
5443 5440 5437 5434 5431 5427 5424 5421 5418 5415 5412 5409 5406 5402 5399 5396 5392 5390 5387 5384 5381 5378 5375 5372 5368 5365 5361 5358 5354 5350 5346 5342 5337 5333 5329 5325 5322 5318 5315 5312 5309 5306 5304 5302
5437 5434 5431 5427 5423 5420 5417 5413 5410 5407 5404 5401 5398 5394 5391 5388 5385 5381 5379 5376 5373 5370 5367 5363 5360 5356 5353 5349 5345 5341 5337 5333 5329 5324 5320 5317 5313 5310 5307 5304 5301 5299 5296 5294
5430 5427 5424 5420 5417 5413 5410 5406 5403 5400 5396 5393 5390 5387 5383 5380 5377 5373 5370 5368 5365 5362 5358 5355 5352 5348 5344 5340 5336 5332 5328 5324 5320 5316 5312 5309 5305 5302 5299 5296 5294 5291 5289 5287
5424 5421 5417 5414 5410 5406 5403 5399 5395 5392 5389 5385 5382 5378 5375 5372 5369 5366 5363 5360 5356 5353 5350 5346 5343 5339 5335 5332 5328 5324 5320 5316 5311 5307 5304 5300 5297 5294 5292 5289 5287 5284 5282 5281
5417 5414 5410 5407 5403 5399 5396 5392 5388 5384 5381 5377 5374 5370 5367 5364 5360 5357 5354 5351 5347 5344 5341 5337 5334 5330 5326 5323 5319 5315 5311 5307 5303 5299 5296 5293 5289 5287 5284 5282 5280 5278 5276 5274
5410 5406 5403 5399 5396 5392 5388 5384 5380 5376 5373 5369 5365 5362 5358 5355 5352 5349 5345 5342 5338 5335 5332 5328 5325 5321 5318 5314 5311 5307 5303 5299 5296 5292 5288 5285 5282 5279 5277 5275 5273 5271 5270 5268
5402 5399 5395 5392 5388 5384 5380 5376 5372 5368 5364 5361 5357 5353 5350 5346 5343 5340 5336 5332 5329 5326 5323 5319 5316 5313 5309 5306 5303 5299 5296 5292 5288 5285 5281 5278 5275 5273 5270 5268 5266 5265 5263 5262
5394 5391 5387 5384 5380 5376 5372 5368 5364 5360 5356 5352 5349 5345 5341 5338 5334 5331 5327 5323 5320 5317 5314 5310 5307 5304 5301 5298 5295 5291 5288 5285 5281 5278 5275 5272 5269 5266 5264 5262 5260 5258 5257 5255
5386 5383 5379 5376 5372 5368 5364 5360 5356 5352 5348 5344 5341 5337 5333 5329 5325 5322 5318 5314 5311 5308 5305 5302 5299 5296 5293 5290 5287 5284 5281 5278 5274 5271 5268 5265 5263 5260 5258 5256 5254 5253 5251 5250